RYR6NJ LIRN-LOWW

Flight info

Callsign RYR6NJ
Flight time 1h 22m
Altitude 36000
Route BEDPI DCT MOLUX DCT VAPUP/N0451F370 DCT NIVES DCT OBUTI OBUTI2W
Aircraft A320/M-SDE3FGHIRWY/LB1

Departure

Time 2026-04-30 11:47
Airport Naples International Airport (LIRN)

Arrival

Time 2026-04-30 13:10
Airport Vienna International Airport (LOWW)
Time Latitude Longitude Altitude Speed Heading
2026-04-30 11:20 40.87812 14.28044 300 ft 0 kts 141°
2026-04-30 11:39 40.87825 14.28031 300 ft 4 kts 141°
2026-04-30 11:39 40.87844 14.28010 300 ft 2 kts 141°
2026-04-30 11:40 40.87863 14.27993 298 ft 4 kts 172°
2026-04-30 11:40 40.87886 14.28001 296 ft 3 kts 230°
2026-04-30 11:40 40.87898 14.28020 300 ft 0 kts 231°
2026-04-30 11:42 40.87897 14.28019 300 ft 1 kts 231°
2026-04-30 11:42 40.87883 14.27996 296 ft 5 kts 231°
2026-04-30 11:43 40.87859 14.27953 298 ft 5 kts 241°
2026-04-30 11:43 40.87859 14.27902 300 ft 5 kts 291°
2026-04-30 11:43 40.87884 14.27864 299 ft 5 kts 317°
2026-04-30 11:43 40.87898 14.27848 299 ft 0 kts 320°
2026-04-30 11:44 40.87919 14.27824 300 ft 5 kts 320°
2026-04-30 11:44 40.87952 14.27793 300 ft 6 kts 327°
2026-04-30 11:44 40.87982 14.27782 298 ft 4 kts 16°
2026-04-30 11:45 40.88002 14.27807 297 ft 0 kts 55°
2026-04-30 11:47 40.88047 14.27898 298 ft 44 kts 57°
2026-04-30 11:47 40.88336 14.28508 281 ft 110 kts 58°
2026-04-30 11:47 40.88835 14.29568 376 ft 150 kts 59°
2026-04-30 11:47 40.89372 14.30734 1051 ft 148 kts 58°
2026-04-30 11:48 40.89915 14.31888 1747 ft 148 kts 59°
2026-04-30 11:48 40.90465 14.33072 2324 ft 155 kts 59°
2026-04-30 11:48 40.91034 14.34271 2954 ft 153 kts 57°
2026-04-30 11:48 40.91604 14.35459 3569 ft 155 kts 57°
2026-04-30 11:49 40.92215 14.36736 3901 ft 174 kts 57°
2026-04-30 11:49 40.92895 14.38168 4212 ft 196 kts 57°
2026-04-30 11:49 40.93777 14.39633 4713 ft 209 kts 40°
2026-04-30 11:49 40.95033 14.40638 5407 ft 214 kts 20°
2026-04-30 11:50 40.96501 14.41014 6204 ft 218 kts
2026-04-30 11:50 40.98018 14.40732 6892 ft 225 kts 342°
2026-04-30 11:50 40.99407 14.39758 7600 ft 229 kts 321°
2026-04-30 11:50 41.00438 14.38155 8396 ft 231 kts 300°
2026-04-30 11:51 41.00967 14.36151 9242 ft 233 kts 280°
2026-04-30 11:51 41.00926 14.33998 10049 ft 238 kts 259°
2026-04-30 11:51 41.00266 14.31969 10759 ft 245 kts 238°
2026-04-30 11:51 40.99028 14.30378 11485 ft 253 kts 215°
2026-04-30 11:52 40.97387 14.29459 12205 ft 259 kts 201°
2026-04-30 11:52 40.95675 14.28680 12939 ft 261 kts 204°
2026-04-30 11:52 40.93967 14.27834 13667 ft 263 kts 206°
2026-04-30 11:52 40.92264 14.26920 14353 ft 265 kts 207°
2026-04-30 11:53 40.90561 14.25971 15030 ft 266 kts 208°
2026-04-30 11:53 40.88868 14.24966 15682 ft 267 kts 211°
2026-04-30 11:53 40.87156 14.23984 16331 ft 272 kts 202°
2026-04-30 11:53 40.85260 14.23583 16940 ft 282 kts 185°
2026-04-30 11:54 40.83288 14.23958 17573 ft 292 kts 168°
2026-04-30 11:54 40.81334 14.24708 18218 ft 294 kts 169°
2026-04-30 11:54 40.79366 14.25459 18787 ft 296 kts 169°
2026-04-30 11:54 40.77380 14.26213 19322 ft 298 kts 169°
2026-04-30 11:55 40.75381 14.26983 19853 ft 302 kts 166°
2026-04-30 11:55 40.73525 14.28355 20352 ft 314 kts 140°
2026-04-30 11:55 40.72234 14.30697 20828 ft 322 kts 111°
2026-04-30 11:55 40.71835 14.33590 21281 ft 324 kts 83°
2026-04-30 11:56 40.72203 14.36516 21749 ft 325 kts 75°
2026-04-30 11:56 40.72766 14.39403 22235 ft 325 kts 64°
2026-04-30 11:56 40.73812 14.42022 22731 ft 322 kts 49°
2026-04-30 11:56 40.75287 14.44242 22997 ft 326 kts 34°
2026-04-30 11:57 40.77165 14.45951 23142 ft 332 kts 21°
2026-04-30 11:57 40.79229 14.47378 23274 ft 347 kts 21°
2026-04-30 11:57 40.81409 14.48891 23422 ft 362 kts 21°
2026-04-30 11:57 40.83682 14.50475 23568 ft 377 kts 22°
2026-04-30 11:58 40.86039 14.52129 23706 ft 391 kts 22°
2026-04-30 11:58 40.88480 14.53854 23832 ft 405 kts 22°
2026-04-30 11:58 40.91000 14.55642 23975 ft 417 kts 22°
2026-04-30 11:58 40.93573 14.57471 24302 ft 422 kts 22°
2026-04-30 11:59 40.96170 14.59318 24699 ft 425 kts 22°
2026-04-30 11:59 40.98785 14.61178 25109 ft 428 kts 22°
2026-04-30 11:59 41.01410 14.63044 25517 ft 430 kts 22°
2026-04-30 11:59 41.04053 14.64922 25924 ft 432 kts 22°
2026-04-30 12:00 41.06731 14.66725 26311 ft 430 kts 17°
2026-04-30 12:00 41.09490 14.68269 26698 ft 431 kts 17°
2026-04-30 12:00 41.12263 14.69816 27062 ft 434 kts 17°
2026-04-30 12:00 41.15054 14.71377 27410 ft 436 kts 16°
2026-04-30 12:01 41.17851 14.72945 27791 ft 438 kts 16°
2026-04-30 12:01 41.20666 14.74521 28163 ft 440 kts 16°
2026-04-30 12:01 41.23491 14.76103 28528 ft 442 kts 16°
2026-04-30 12:01 41.26326 14.77727 28879 ft 445 kts 17°
2026-04-30 12:02 41.29150 14.79428 29210 ft 446 kts 15°
2026-04-30 12:02 41.32067 14.80817 29506 ft 442 kts
2026-04-30 12:02 41.35053 14.81694 29839 ft 439 kts
2026-04-30 12:02 41.38064 14.82414 30150 ft 440 kts
2026-04-30 12:03 41.41086 14.83088 30415 ft 441 kts
2026-04-30 12:03 41.47170 14.84387 30921 ft 444 kts
2026-04-30 12:03 41.50228 14.85042 31171 ft 446 kts
2026-04-30 12:04 41.53288 14.85714 31449 ft 446 kts
2026-04-30 12:04 41.56339 14.86397 31776 ft 444 kts
2026-04-30 12:04 41.59343 14.87074 32106 ft 443 kts
2026-04-30 12:04 41.62375 14.87760 32421 ft 442 kts
2026-04-30 12:05 41.65404 14.88445 32732 ft 441 kts
2026-04-30 12:05 41.68426 14.89129 33026 ft 440 kts
2026-04-30 12:05 41.71438 14.89805 33338 ft 439 kts
2026-04-30 12:05 41.74453 14.90477 33675 ft 438 kts
2026-04-30 12:06 41.77455 14.91147 34005 ft 437 kts
2026-04-30 12:06 41.80453 14.91822 34315 ft 436 kts
2026-04-30 12:06 41.83445 14.92497 34595 ft 436 kts
2026-04-30 12:06 41.86429 14.93172 34867 ft 435 kts
2026-04-30 12:07 41.89411 14.93848 35137 ft 434 kts
2026-04-30 12:07 41.92388 14.94519 35382 ft 434 kts
2026-04-30 12:07 41.95361 14.95182 35610 ft 433 kts
2026-04-30 12:07 41.98326 14.95839 35850 ft 433 kts
2026-04-30 12:08 42.01299 14.96502 36078 ft 432 kts
2026-04-30 12:08 42.04270 14.97176 36183 ft 432 kts
2026-04-30 12:08 42.07229 14.97857 36201 ft 431 kts
2026-04-30 12:09 42.13135 14.99223 36200 ft 430 kts
2026-04-30 12:09 42.19037 15.00574 36199 ft 430 kts
2026-04-30 12:10 42.24930 15.01908 36200 ft 430 kts
2026-04-30 12:10 42.30822 15.03244 36202 ft 429 kts
2026-04-30 12:11 42.36721 15.04601 36215 ft 430 kts
2026-04-30 12:11 42.42613 15.05958 36213 ft 430 kts
2026-04-30 12:12 42.48508 15.07314 36213 ft 430 kts
2026-04-30 12:12 42.54403 15.08665 36215 ft 430 kts
2026-04-30 12:13 42.60261 15.10008 36216 ft 430 kts
2026-04-30 12:13 42.66163 15.11381 36218 ft 430 kts
2026-04-30 12:14 42.72069 15.12760 36221 ft 431 kts
2026-04-30 12:14 42.77974 15.14136 36225 ft 431 kts
2026-04-30 12:15 42.83885 15.15501 36227 ft 431 kts
2026-04-30 12:15 42.89798 15.16867 36223 ft 431 kts
2026-04-30 12:16 42.95702 15.18244 36221 ft 431 kts
2026-04-30 12:16 43.01611 15.19634 36217 ft 431 kts
2026-04-30 12:17 43.10425 15.21921 36213 ft 434 kts
2026-04-30 12:17 43.16347 15.23845 36211 ft 435 kts
2026-04-30 12:18 43.22233 15.25777 36216 ft 435 kts
2026-04-30 12:18 43.28132 15.27638 36221 ft 435 kts
2026-04-30 12:19 43.34035 15.29486 36222 ft 435 kts
2026-04-30 12:19 43.39941 15.31352 36223 ft 435 kts
2026-04-30 12:20 43.45844 15.33213 36226 ft 435 kts
2026-04-30 12:20 43.51751 15.35070 36228 ft 435 kts
2026-04-30 12:21 43.57618 15.36931 36226 ft 435 kts
2026-04-30 12:21 43.63514 15.38812 36235 ft 435 kts
2026-04-30 12:22 43.69407 15.40688 36236 ft 434 kts
2026-04-30 12:22 43.75289 15.42562 36232 ft 434 kts
2026-04-30 12:23 43.81175 15.44439 36238 ft 434 kts
2026-04-30 12:23 43.87061 15.46323 36246 ft 434 kts
2026-04-30 12:24 43.92946 15.48218 36253 ft 434 kts
2026-04-30 12:24 43.98839 15.50112 36259 ft 435 kts
2026-04-30 12:25 44.04732 15.52014 36263 ft 435 kts
2026-04-30 12:25 44.10625 15.53920 36264 ft 435 kts
2026-04-30 12:26 44.16520 15.55829 36265 ft 434 kts
2026-04-30 12:26 44.21414 15.57417 36266 ft 434 kts
2026-04-30 12:27 44.27295 15.59328 36269 ft 434 kts
2026-04-30 12:27 44.33176 15.61241 36275 ft 434 kts
2026-04-30 12:28 44.39058 15.63153 36286 ft 434 kts
2026-04-30 12:28 44.44936 15.65071 36299 ft 434 kts
2026-04-30 12:29 44.50818 15.67003 36303 ft 434 kts
2026-04-30 12:29 44.56691 15.68928 36312 ft 433 kts
2026-04-30 12:30 44.62560 15.70853 36325 ft 433 kts
2026-04-30 12:30 44.68422 15.72793 36334 ft 433 kts
2026-04-30 12:31 44.74276 15.74724 36339 ft 432 kts
2026-04-30 12:31 44.80122 15.76653 36345 ft 431 kts
2026-04-30 12:32 44.85961 15.78591 36354 ft 431 kts
2026-04-30 12:32 44.91795 15.80530 36357 ft 431 kts 10°
2026-04-30 12:33 44.97588 15.82456 36361 ft 430 kts
2026-04-30 12:33 45.03410 15.84396 36364 ft 430 kts 10°
2026-04-30 12:34 45.09230 15.86339 36366 ft 430 kts 10°
2026-04-30 12:34 45.15049 15.88292 36368 ft 430 kts 10°
2026-04-30 12:35 45.20867 15.90251 36373 ft 430 kts 10°
2026-04-30 12:35 45.26691 15.92163 36371 ft 429 kts
2026-04-30 12:36 45.32523 15.93955 36375 ft 429 kts
2026-04-30 12:36 45.38365 15.95739 36378 ft 429 kts
2026-04-30 12:37 45.44192 15.97551 36381 ft 429 kts
2026-04-30 12:37 45.50018 15.99389 36387 ft 428 kts
2026-04-30 12:38 45.55832 16.01225 36389 ft 428 kts 10°
2026-04-30 12:38 45.61649 16.03058 36390 ft 428 kts 10°
2026-04-30 12:39 45.67466 16.04896 36392 ft 428 kts 10°
2026-04-30 12:39 45.73290 16.06737 36397 ft 429 kts 10°
2026-04-30 12:40 45.79114 16.08574 36397 ft 429 kts 10°
2026-04-30 12:40 45.84900 16.10385 36396 ft 428 kts 10°
2026-04-30 12:41 45.90720 16.12228 36395 ft 428 kts 10°
2026-04-30 12:41 45.96534 16.14090 36389 ft 428 kts 11°
2026-04-30 12:42 46.02344 16.15961 36390 ft 428 kts 11°
2026-04-30 12:42 46.08194 16.17861 36390 ft 428 kts 11°
2026-04-30 12:43 46.13970 16.19722 36392 ft 428 kts 11°
2026-04-30 12:43 46.19780 16.21589 36395 ft 428 kts 11°
2026-04-30 12:44 46.25585 16.23453 36395 ft 427 kts 11°
2026-04-30 12:44 46.31382 16.25326 36400 ft 427 kts 11°
2026-04-30 12:45 46.37211 16.26895 36406 ft 425 kts
2026-04-30 12:45 46.43084 16.26194 36404 ft 424 kts 351°
2026-04-30 12:46 46.48908 16.24805 36398 ft 424 kts 351°
2026-04-30 12:46 46.54734 16.23431 36384 ft 424 kts 351°
2026-04-30 12:47 46.60561 16.22050 36388 ft 425 kts 351°
2026-04-30 12:47 46.66398 16.20656 36381 ft 425 kts 351°
2026-04-30 12:48 46.72237 16.19263 36382 ft 425 kts 351°
2026-04-30 12:48 46.75151 16.18565 36223 ft 423 kts 351°
2026-04-30 12:48 46.78047 16.17871 35585 ft 421 kts 351°
2026-04-30 12:49 46.80934 16.17178 34915 ft 421 kts 352°
2026-04-30 12:49 46.83783 16.16498 34205 ft 420 kts 352°
2026-04-30 12:49 46.86713 16.15802 32614 ft 434 kts 352°
2026-04-30 12:49 46.89730 16.15082 31231 ft 443 kts 352°
2026-04-30 12:50 46.92788 16.14347 29862 ft 447 kts 352°
2026-04-30 12:50 46.95865 16.13604 28339 ft 451 kts 352°
2026-04-30 12:50 46.98978 16.12849 26780 ft 454 kts 352°
2026-04-30 12:50 47.02110 16.12092 25241 ft 458 kts 352°
2026-04-30 12:51 47.05246 16.11337 24319 ft 452 kts 352°
2026-04-30 12:51 47.08273 16.10607 24156 ft 430 kts 352°
2026-04-30 12:51 47.11137 16.09911 23967 ft 403 kts 352°
2026-04-30 12:51 47.13841 16.09250 23174 ft 387 kts 352°
2026-04-30 12:52 47.16469 16.08606 22338 ft 381 kts 352°
2026-04-30 12:52 47.19064 16.07972 21897 ft 375 kts 352°
2026-04-30 12:52 47.21627 16.07350 21408 ft 371 kts 352°
2026-04-30 12:52 47.24167 16.06736 20911 ft 368 kts 353°
2026-04-30 12:53 47.26684 16.06126 20418 ft 365 kts 353°
2026-04-30 12:53 47.29179 16.05520 19929 ft 362 kts 353°
2026-04-30 12:53 47.31654 16.04914 19436 ft 359 kts 352°
2026-04-30 12:53 47.34113 16.04308 18948 ft 357 kts 353°
2026-04-30 12:54 47.36574 16.04075 18395 ft 353 kts
2026-04-30 12:54 47.38983 16.04655 17899 ft 348 kts 16°
2026-04-30 12:54 47.41268 16.05764 17571 ft 341 kts 19°
2026-04-30 12:54 47.43452 16.06853 17178 ft 324 kts 19°
2026-04-30 12:55 47.45567 16.07906 16497 ft 321 kts 19°
2026-04-30 12:55 47.47672 16.08953 16127 ft 317 kts 19°
2026-04-30 12:55 47.49757 16.09989 15734 ft 315 kts 19°
2026-04-30 12:55 47.51826 16.11019 15329 ft 313 kts 18°
2026-04-30 12:56 47.53891 16.12043 14927 ft 312 kts 18°
2026-04-30 12:56 47.55942 16.13058 14552 ft 310 kts 18°
2026-04-30 12:56 47.57987 16.14073 14168 ft 309 kts 18°
2026-04-30 12:56 47.60017 16.15081 13729 ft 307 kts 18°
2026-04-30 12:57 47.62040 16.16089 13281 ft 306 kts 18°
2026-04-30 12:57 47.64049 16.17090 12854 ft 304 kts 19°
2026-04-30 12:57 47.66051 16.18088 12453 ft 302 kts 19°
2026-04-30 12:57 47.68038 16.19082 12022 ft 301 kts 19°
2026-04-30 12:58 47.70016 16.20070 11615 ft 299 kts 19°
2026-04-30 12:58 47.71982 16.21054 11217 ft 298 kts 19°
2026-04-30 12:58 47.73942 16.22035 10808 ft 296 kts 19°
2026-04-30 12:58 47.75843 16.23175 10404 ft 294 kts 29°
2026-04-30 12:59 47.77522 16.24875 9963 ft 292 kts 41°
2026-04-30 12:59 47.78914 16.26996 9797 ft 281 kts 47°
2026-04-30 12:59 47.80217 16.29084 9658 ft 270 kts 46°
2026-04-30 12:59 47.81484 16.31098 9403 ft 265 kts 46°
2026-04-30 13:00 47.82720 16.33062 9062 ft 262 kts 46°
2026-04-30 13:00 47.83961 16.35037 8689 ft 261 kts 46°
2026-04-30 13:00 47.85198 16.37008 8324 ft 260 kts 46°
2026-04-30 13:00 47.86427 16.38963 7974 ft 258 kts 46°
2026-04-30 13:01 47.87585 16.40983 7631 ft 256 kts 54°
2026-04-30 13:01 47.88462 16.43286 7271 ft 256 kts 65°
2026-04-30 13:01 47.89031 16.45794 6922 ft 256 kts 72°
2026-04-30 13:01 47.89491 16.48342 6514 ft 255 kts 77°
2026-04-30 13:02 47.89472 16.50988 6102 ft 259 kts 100°
2026-04-30 13:02 47.88693 16.53427 5618 ft 267 kts 125°
2026-04-30 13:02 47.87246 16.55177 5165 ft 273 kts 153°
2026-04-30 13:02 47.85442 16.56015 4919 ft 269 kts 164°
2026-04-30 13:03 47.83666 16.56725 4768 ft 258 kts 159°
2026-04-30 13:03 47.82226 16.58127 4631 ft 242 kts 127°
2026-04-30 13:03 47.81517 16.60279 4349 ft 228 kts 93°
2026-04-30 13:03 47.81699 16.62527 4016 ft 216 kts 60°
2026-04-30 13:04 47.82661 16.64151 3656 ft 210 kts 31°
2026-04-30 13:04 47.83987 16.65044 3337 ft 210 kts 18°
2026-04-30 13:04 47.85381 16.65690 3033 ft 209 kts 16°
2026-04-30 13:04 47.86742 16.66286 2980 ft 199 kts 15°
2026-04-30 13:05 47.88077 16.66867 2975 ft 198 kts 15°
2026-04-30 13:05 47.89431 16.67201 2981 ft 198 kts 356°
2026-04-30 13:05 47.90780 16.66752 2976 ft 200 kts 346°
2026-04-30 13:06 47.93400 16.65643 2974 ft 186 kts 345°
2026-04-30 13:06 47.94622 16.65130 2978 ft 181 kts 345°
2026-04-30 13:06 47.95824 16.64625 2983 ft 179 kts 346°
2026-04-30 13:06 47.97025 16.64121 2969 ft 179 kts 345°
2026-04-30 13:07 47.98192 16.63630 2844 ft 171 kts 346°
2026-04-30 13:07 47.99342 16.63146 2600 ft 170 kts 346°
2026-04-30 13:07 48.00444 16.62682 2384 ft 157 kts 346°
2026-04-30 13:07 48.01463 16.62253 2178 ft 148 kts 347°
2026-04-30 13:08 48.02422 16.61849 1995 ft 138 kts 347°
2026-04-30 13:08 48.03322 16.61470 1805 ft 132 kts 347°
2026-04-30 13:08 48.04182 16.61108 1628 ft 129 kts 346°
2026-04-30 13:08 48.05045 16.60745 1442 ft 129 kts 346°
2026-04-30 13:09 48.05905 16.60383 1249 ft 128 kts 346°
2026-04-30 13:09 48.06767 16.60019 1069 ft 127 kts 345°
2026-04-30 13:09 48.07615 16.59659 909 ft 127 kts 345°
2026-04-30 13:09 48.08482 16.59296 708 ft 129 kts 344°
2026-04-30 13:10 48.09316 16.58941 613 ft 113 kts 345°
2026-04-30 13:10 48.09907 16.58693 618 ft 65 kts 344°
2026-04-30 13:10 48.10199 16.58572 616 ft 32 kts 344°
2026-04-30 13:10 48.10370 16.58459 609 ft 25 kts 317°
2026-04-30 13:11 48.10457 16.58247 616 ft 24 kts 310°
2026-04-30 13:11 48.10596 16.58117 619 ft 24 kts 345°
2026-04-30 13:11 48.10758 16.58057 618 ft 23 kts 345°
2026-04-30 13:11 48.10909 16.57993 621 ft 23 kts 343°
2026-04-30 13:12 48.11059 16.57926 609 ft 21 kts 341°
2026-04-30 13:12 48.11145 16.57756 618 ft 22 kts 296°
2026-04-30 13:12 48.11214 16.57545 617 ft 23 kts 295°
2026-04-30 13:13 48.11362 16.57086 615 ft 26 kts 295°
2026-04-30 13:13 48.11442 16.56843 616 ft 26 kts 296°
2026-04-30 13:13 48.11604 16.56350 620 ft 25 kts 296°
2026-04-30 13:14 48.11680 16.56113 616 ft 25 kts 296°
2026-04-30 13:14 48.11753 16.55887 619 ft 20 kts 294°
2026-04-30 13:14 48.11923 16.55924 609 ft 9 kts 25°
2026-04-30 13:15 48.11955 16.55902 616 ft 9 kts 298°
2026-04-30 13:15 48.11973 16.55845 609 ft 0 kts 295°